Wetbulb
51.32 51.52 51.63 51.79 51.72 51.57 51.32 51.06 51.01 50.77 50.41 49.86 49.45 49.24 49.17 49.14 49.00 49.30 49.69 49.75 49.94 50.14 50.40 50.54 50.73 50.63 50.44 50.48 50.62 50.71 50.94 51.19 51.39 51.68 51.99 52.06 52.08 52.21 52.60 53.10 53.67 54.10 54.37 54.68 54.81 54.90 55.00 54.88 54.89 54.89 54.87 54.70 54.39 54.11 53.96 54.00 53.85 53.81 53.94 54.16 54.50 54.82 55.20 55.57 56.72 58.16 59.57 60.87 61.31
51.47 51.59 51.71 51.95 52.02 51.81 51.65 51.39 51.20 51.09 50.85 50.53 50.08 49.65 49.31 49.35 49.33 49.35 49.50 49.50 50.14 50.37 50.66 51.10 50.93 50.66 50.62 50.90 51.15 51.24 51.25 51.27 51.41 51.58 51.86 51.86 51.89 51.88 52.11 52.50 52.93 53.42 53.95 54.37 54.66 54.95 55.12 54.99 54.95 54.84 54.86 54.76 54.56 54.29 54.15 54.30 54.11 53.88 53.69 53.58 54.20 54.66 55.06 55.32 56.23 57.39 58.73 60.16 61.18
51.43 51.70 51.83 51.82 51.62 51.50 51.38 51.13 51.07 50.97 50.78 50.80 50.73 50.34 49.95 49.90 49.87 49.93 49.99 50.15 50.25 50.49 50.83 51.29 50.99 50.91 50.97 51.19 51.47 51.53 51.49 51.43 51.39 51.46 51.66 51.81 51.85 51.95 52.02 52.25 52.41 52.90 53.34 53.93 54.34 54.78 55.04 55.06 55.10 55.05 54.90 54.80 54.57 54.38 54.35 54.39 54.33 54.09 53.80 53.63 54.15 54.49 54.90 55.34 56.13 57.17 58.39 59.72 60.78
49.17 50.07 50.84 51.39 51.24 51.28 51.45 51.83 51.47 51.24 51.18 51.35 51.12 50.83 50.59 50.54 50.64 50.57 50.56 50.39 50.37 50.64 50.98 51.21 51.30 51.47 51.69 51.94 51.99 52.00 52.05 52.05 51.73 51.58 51.54 51.64 51.75 51.90 52.00 52.09 52.18 52.38 52.68 53.25 53.77 54.22 54.65 54.97 55.15 55.15 55.02 54.70 54.42 54.37 54.44 54.60 54.46 54.23 54.08 54.00 54.19 54.24 54.43 54.92 55.98 56.97 57.82 58.83 60.26
47.10 47.77 48.41 48.90 49.08 49.89 51.03 51.79 51.82 52.07 52.26 52.44 52.11 51.82 51.60 51.34 51.25 51.14 51.09 51.14 51.21 51.48 51.63 51.47 51.77 52.13 52.46 52.55 52.59 52.59 52.63 52.58 52.58 52.29 52.02 51.82 51.73 51.80 51.94 52.01 52.03 52.25 52.45 52.71 53.00 53.56 54.07 54.43 54.88 55.06 54.94 54.76 54.60 54.51 54.54 54.54 54.30 54.14 54.14 54.23 54.26 54.20 54.29 54.46 55.39 56.48 57.56 58.47 59.77
46.20 46.56 46.88 47.06 47.28 47.77 48.49 49.35 50.02 51.15 52.29 53.38 52.99 52.60 52.52 52.73 52.54 52.32 52.07 51.90 51.98 52.06 52.12 52.26 52.43 52.71 52.80 52.75 52.76 52.88 52.92 52.88 52.92 52.71 52.34 51.93 51.97 51.86 51.83 51.84 51.90 52.07 52.28 52.44 52.56 52.87 53.23 53.63 54.17 54.38 54.60 54.66 54.55 54.55 54.47 54.34 54.14 53.96 53.88 53.88 54.06 54.09 54.15 54.18 54.97 55.93 57.04 58.17 59.33
45.58 45.89 46.11 46.47 46.65 46.88 47.15 47.41 48.27 49.08 49.89 50.75 50.52 50.52 50.89 51.52 51.69 51.77 51.97 52.37 52.81 52.98 53.19 53.35 53.34 53.35 53.32 53.12 53.12 53.11 53.10 53.16 53.11 52.86 52.56 52.48 52.30 52.19 51.97 51.99 51.95 52.07 52.17 52.42 52.42 52.63 52.77 53.04 53.33 53.55 53.89 54.14 54.22 54.17 54.16 54.18 54.02 53.73 53.53 53.33 53.78 53.89 53.98 53.91 54.64 55.45 56.51 57.62 58.78
44.69 45.13 45.49 45.85 45.89 46.16 46.47 46.65 47.19 47.59 47.73 47.86 47.64 47.73 48.04 48.72 49.12 49.52 50.10 50.95 51.90 52.62 53.24 53.59 53.61 53.63 53.74 53.76 53.83 53.75 53.59 53.34 53.28 53.22 53.13 52.97 52.76 52.51 52.36 52.19 52.19 52.17 52.25 52.44 52.52 52.60 52.70 52.94 53.01 53.14 53.25 53.45 53.58 53.63 53.71 53.68 53.60 53.43 53.24 53.17 53.48 53.68 53.73 53.82 54.41 55.00 55.73 56.61 57.70
43.49 43.98 44.51 45.00 45.18 45.54 45.90 46.07 46.65 46.83 46.79 46.70 46.70 47.01 47.46 47.77 47.82 48.00 48.36 49.03 49.89 50.70 51.42 52.19 52.73 53.17 53.57 53.97 54.04 54.11 54.09 54.02 53.93 53.83 53.78 53.62 53.33 53.06 52.87 52.69 52.56 52.46 52.49 52.66 52.63 52.63 52.67 52.94 53.03 53.14 53.16 53.33 53.36 53.39 53.40 53.37 53.17 53.05 53.07 53.23 53.37 53.61 53.69 53.69 53.94 54.37 54.88 55.70 56.61
42.33 42.86 43.45 43.98 44.34 44.83 45.23 45.32 46.03 46.30 46.30 46.07 46.30 46.70 47.19 47.59 47.55 47.50 47.73 48.13 48.54 48.80 49.29 50.10 50.96 51.72 52.53 53.39 53.98 54.39 54.60 54.68 54.74 54.62 54.54 54.48 54.28 54.05 53.77 53.63 53.26 53.05 52.99 52.97 52.93 52.78 52.73 52.83 53.04 53.28 53.41 53.63 53.49 53.47 53.45 53.45 53.22 53.09 53.10 53.41 53.46 53.50 53.49 53.59 53.64 53.73 53.95 54.55 55.39
41.35 41.93 42.55 43.22 43.67 44.12 44.48 44.44 45.23 45.68 45.68 45.50 45.76 46.21 46.61 46.97 47.10 47.32 47.64 47.91 47.77 47.77 48.13 48.98 49.74 50.51 51.36 52.49 53.49 54.25 54.89 55.20 55.24 55.18 55.03 54.95 54.97 54.85 54.70 54.52 54.19 54.01 53.81 53.71 53.62 53.47 53.25 53.11 53.14 53.25 53.57 53.80 53.84 53.87 53.89 53.88 53.79 53.61 53.54 53.79 53.71 53.61 53.45 53.59 53.57 53.53 53.60 53.67 54.27
40.47 40.91 41.53 42.33 42.91 43.37 43.64 43.69 44.43 44.74 44.92 44.83 45.23 45.58 45.94 46.25 46.70 47.10 47.37 47.37 47.19 47.37 47.91 48.71 49.39 49.92 50.60 51.46 52.27 53.26 54.30 55.02 55.34 55.34 55.29 55.19 55.16 55.13 55.10 55.04 54.90 54.77 54.67 54.52 54.54 54.40 54.23 53.79 53.57 53.38 53.36 53.62 53.98 54.15 54.25 54.32 54.33 54.20 54.06 54.21 54.22 54.07 53.87 53.84 53.88 53.92 53.83 53.58 53.69
39.47 39.95 40.48 41.31 42.12 42.61 42.88 43.10 43.67 44.02 44.20 44.20 44.60 45.09 45.49 45.85 46.34 46.61 46.79 46.65 46.70 47.06 47.68 48.36 49.12 49.57 49.89 50.16 50.52 51.19 52.00 53.27 54.35 54.98 55.21 55.20 55.33 55.36 55.34 55.24 55.18 55.17 55.07 55.11 55.19 55.14 54.97 54.70 54.28 53.91 53.72 53.66 54.05 54.20 54.34 54.43 54.49 54.46 54.24 54.15 54.33 54.35 54.32 54.32 54.46 54.52 54.44 54.05 53.59
38.34 38.72 39.33 40.08 40.92 41.50 41.98 42.19 42.81 43.21 43.52 43.61 44.10 44.59 45.04 45.35 45.85 46.12 46.25 46.11 46.20 46.61 47.10 47.73 48.40 48.90 49.12 48.98 48.81 48.80 49.25 50.29 51.69 52.86 53.77 54.36 54.67 54.89 54.93 54.97 55.09 55.09 54.99 55.04 55.16 55.16 55.06 54.96 54.80 54.52 54.29 54.10 54.10 54.28 54.33 54.30 54.50 54.47 54.35 54.09 53.92 53.97 54.27 54.62 55.02 55.16 55.09 54.63 54.13
36.93 37.49 38.10 38.85 39.55 40.20 40.81 41.25 41.96 42.36 42.68 42.94 43.61 44.15 44.59 44.86 45.36 45.67 45.80 45.67 45.89 46.12 46.52 46.83 47.37 47.95 48.27 48.17 47.86 47.68 47.82 48.13 48.80 49.66 50.56 51.51 52.28 52.78 53.18 53.55 54.00 54.22 54.49 54.62 54.75 54.79 54.64 54.64 54.66 54.64 54.54 54.35 54.34 54.38 54.42 54.34 54.36 54.37 54.34 54.25 54.00 53.83 54.06 54.59 55.13 55.46 55.58 55.21 54.90
35.72 36.21 36.86 37.61 38.18 38.79 39.49 40.14 40.93 41.38 41.78 42.14 42.89 43.52 44.01 44.37 44.77 45.18 45.35 45.35 45.49 45.62 45.80 45.89 46.34 46.97 47.37 47.50 47.37 47.19 47.15 47.19 47.32 47.50 47.73 48.18 48.63 49.12 49.66 50.39 51.15 51.97 52.73 53.37 53.82 54.22 54.35 54.34 54.38 54.42 54.31 54.24 54.27 54.30 54.28 54.28 54.19 54.29 54.35 54.32 54.20 53.94 53.91 54.28 54.81 55.24 55.58 55.66 55.23
34.82 35.26 35.87 36.41 36.85 37.42 38.21 38.83 39.61 40.14 40.59 41.08 41.92 42.54 43.21 43.69 44.14 44.59 44.91 45.04 45.08 45.04 45.00 45.27 45.71 46.07 46.38 46.52 46.70 46.70 46.52 46.52 46.61 46.70 46.70 46.79 46.79 46.88 47.06 47.42 48.05 48.67 49.49 50.34 51.25 52.10 52.87 53.59 54.09 54.22 54.26 54.20 54.23 54.21 54.24 54.21 54.25 54.25 54.29 54.34 54.31 54.05 53.98 54.09 54.46 54.90 55.28 55.63 55.42
34.26 34.67 35.16 35.60 35.96 36.45 37.12 37.73 38.25 38.74 39.28 39.94 40.68 41.48 42.15 42.72 43.21 43.74 44.28 44.60 44.64 44.51 44.51 44.82 45.23 45.36 45.54 45.58 45.85 46.03 46.03 45.93 46.02 46.20 46.38 46.56 46.61 46.61 46.52 46.56 46.92 47.24 47.46 47.73 48.18 48.67 49.30 50.20 51.33 52.28 53.00 53.60 53.91 54.12 54.20 54.15 54.09 54.25 54.32 54.39 54.30 54.18 53.97 53.98 54.25 54.61 54.91 55.25 55.36
33.98 34.30 34.70 35.10 35.42 35.92 36.46 36.99 37.29 37.68 38.21 38.83 39.67 40.34 40.96 41.50 42.07 42.68 43.26 43.80 44.11 44.29 44.33 44.51 44.65 44.83 44.96 45.14 45.23 45.49 45.62 45.49 45.49 45.67 45.98 46.34 46.52 46.52 46.47 46.56 46.70 46.74 46.79 46.74 46.74 46.74 46.92 47.28 47.95 48.67 49.57 50.57 51.52 52.42 53.23 53.77 54.00 54.07 54.24 54.44 54.37 54.23 54.00 53.97 54.14 54.30 54.50 54.65 54.83
33.88 34.15 34.43 34.87 35.19 35.55 35.92 36.46 36.71 36.93 37.19 37.81 38.48 39.15 39.68 40.18 41.01 41.58 42.11 42.69 43.36 43.76 44.02 44.19 44.33 44.42 44.65 44.78 44.87 45.05 45.13 45.27 45.09 45.18 45.40 45.84 45.98 46.11 46.11 46.25 46.34 46.38 46.29 46.25 46.20 46.20 46.38 46.52 46.70 46.88 47.10 47.41 47.86 48.81 49.89 51.43 52.65 53.50 54.03 54.43 54.45 54.34 54.14 54.00 53.99 54.05 54.06 54.06 54.19
34.03 34.30 34.57 34.79 35.10 35.19 35.45 36.09 36.32 36.37 36.54 36.85 37.34 38.00 38.63 39.21 39.74 40.40 41.15 41.91 42.40 42.84 43.18 43.66 44.06 44.19 44.33 44.51 44.60 44.69 44.78 45.00 44.91 44.87 44.95 45.17 45.22 45.40 45.62 45.80 45.89 45.89 45.80 45.75 45.80 45.93 46.07 46.34 46.52 46.56 46.61 46.52 46.47 46.52 46.97 47.68 49.26 50.93 52.55 53.77 54.25 54.36 54.29 54.22 54.07 53.96 53.79 53.61 53.72
34.17 34.41 34.54 34.48 35.02 35.25 35.44 35.75 35.92 35.88 35.84 36.15 36.63 37.21 37.74 38.19 38.81 39.53 40.38 41.09 41.27 41.52 41.95 42.77 43.57 44.01 44.19 44.28 44.46 44.46 44.55 44.64 44.55 44.51 44.55 44.55 44.60 44.73 44.96 45.31 45.31 45.31 45.26 45.26 45.40 45.62 45.85 46.12 46.38 46.47 46.47 46.43 46.25 46.16 46.16 46.29 46.74 47.86 49.53 51.60 53.13 53.97 54.31 54.42 54.25 54.03 53.82 53.61 53.54
34.08 34.30 34.48 34.64 34.92 35.33 35.61 35.46 35.40 35.40 35.53 35.80 36.33 36.59 36.86 37.39 38.07 38.75 39.42 39.73 40.04 40.35 40.91 41.94 43.00 43.62 44.02 44.11 44.19 44.19 44.15 43.97 43.97 44.02 44.11 44.07 44.03 44.12 44.21 44.51 44.60 44.68 44.73 44.99 45.17 45.35 45.57 45.80 46.07 46.20 46.25 46.20 46.02 45.89 45.89 45.93 46.16 46.70 47.69 49.21 51.33 52.90 53.97 54.45 54.45 54.36 54.18 53.93 53.78
33.84 33.97 34.26 34.53 34.63 34.82 35.00 35.03 34.97 35.10 35.32 35.49 35.89 36.15 36.42 36.82 37.32 37.91 38.41 38.58 38.85 39.16 39.85 40.93 42.03 42.92 43.54 43.98 43.93 43.89 43.75 43.43 43.30 43.35 43.44 43.54 43.49 43.41 43.45 43.67 43.89 44.15 44.55 44.90 45.13 45.36 45.49 45.71 45.80 45.89 46.02 46.02 45.84 45.80 45.71 45.67 45.93 46.38 47.24 48.41 50.12 51.83 53.26 54.20 54.54 54.54 54.44 54.31 54.25
33.36 33.46 33.54 33.74 33.89 34.08 34.25 34.33 34.41 34.53 34.75 35.14 35.59 36.03 36.43 36.78 37.10 37.42 37.65 37.78 37.83 38.14 38.72 39.73 40.73 41.82 42.79 43.36 43.45 43.45 43.36 43.26 43.17 43.03 42.99 43.04 42.87 42.74 42.74 42.91 43.18 43.70 44.28 44.81 45.19 45.42 45.68 45.81 45.85 45.80 45.75 45.75 45.66 45.53 45.48 45.44 45.71 46.25 47.06 48.14 49.67 51.25 52.78 53.80 54.38 54.68 54.78 54.82 54.74
32.55 32.43 32.38 32.61 32.79 32.97 33.20 33.37 33.67 33.94 34.29 34.67 35.07 35.47 35.90 36.43 36.74 36.93 36.95 37.08 37.26 37.40 37.84 38.64 39.47 40.56 41.74 42.34 42.39 42.40 42.49 42.70 42.91 42.95 42.86 42.68 42.46 42.29 42.21 42.30 42.69 43.21 43.79 44.38 44.80 45.25 45.60 45.99 46.04 45.90 45.67 45.52 45.34 45.12 45.03 45.03 45.49 45.98 46.56 47.19 48.41 49.99 51.79 53.51 54.36 54.84 55.14 55.34 55.39
31.38 31.30 31.34 31.57 31.58 31.76 32.02 32.34 32.83 33.24 33.64 33.89 34.18 34.66 35.28 35.85 36.16 36.23 36.38 36.65 36.83 36.97 37.23 37.79 38.56 39.59 40.55 41.18 41.18 41.13 41.22 41.62 42.09 42.39 42.56 42.55 42.19 41.97 41.80 41.81 42.16 42.64 43.23 43.79 44.38 44.90 45.34 45.73 45.86 45.86 45.68 45.22 45.03 44.85 44.67 44.67 44.99 45.39 45.80 46.07 46.74 47.55 48.54 49.99 52.16 53.65 54.58 55.06 55.49
30.92 30.93 30.99 31.08 30.91 30.99 31.21 31.53 31.87 32.23 32.62 32.93 33.24 33.72 34.39 35.03 35.44 35.71 35.94 36.08 36.28 36.46 36.61 37.15 37.87 38.58 39.20 39.68 39.94 40.01 40.27 40.67 41.27 41.69 41.85 41.84 41.75 41.66 41.61 41.62 41.84 42.25 42.94 43.72 44.21 44.60 44.95 45.25 45.47 45.56 45.51 45.15 44.86 44.67 44.49 44.31 44.40 44.58 44.80 45.12 45.57 45.66 45.62 45.53 46.69 48.82 51.26 53.65 54.81
30.73 30.78 30.70 30.55 30.54 30.69 30.95 31.16 31.24 31.49 31.76 32.12 32.54 32.98 33.38 33.86 34.22 34.64 35.09 35.37 35.58 35.69 36.06 36.67 37.16 37.56 37.87 38.29 38.72 39.05 39.47 39.81 40.52 41.03 41.16 40.97 40.92 41.04 41.30 41.52 41.61 42.17 42.91 43.90 44.17 44.34 44.47 44.64 44.90 45.12 45.21 45.12 44.65 44.41 44.22 43.99 43.81 43.81 43.99 44.31 44.71 44.67 44.49 44.18 44.18 44.54 45.66 47.73 50.71
30.79 30.75 30.65 30.46 30.46 30.55 30.72 30.93 31.23 31.54 31.85 32.11 32.22 32.31 32.54 33.05 33.20 33.56 33.85 34.25 34.59 35.21 35.90 36.32 36.42 36.53 36.75 37.19 37.81 38.16 38.47 38.93 39.71 40.09 40.08 39.99 39.99 40.24 40.70 41.30 41.52 42.11 42.98 43.98 44.21 44.21 44.17 44.21 44.38 44.55 44.73 44.73 44.31 44.02 43.78 43.59 43.36 43.36 43.40 43.81 43.99 43.99 43.90 43.77 43.77 43.73 43.78 44.09 45.44
31.06 31.06 30.93 30.70 30.69 30.76 30.85 31.07 31.42 31.72 31.85 31.84 31.69 31.77 32.02 32.49 32.78 33.10 33.56 34.04 34.53 35.13 35.57 35.42 35.57 35.78 36.19 36.66 37.01 37.26 37.59 38.14 38.68 38.97 38.96 38.73 38.87 39.18 39.74 40.50 41.14 41.94 42.80 43.77 43.95 43.95 43.95 43.91 44.03 44.12 44.21 44.30 43.84 43.59 43.38 43.24 43.14 43.00 43.00 43.13 43.18 43.23 43.27 43.32 43.37 43.37 43.46 43.51 43.60
31.64 31.60 31.50 31.35 31.38 31.47 31.65 31.92 32.18 32.26 32.08 31.65 31.65 31.77 32.11 32.61 32.83 33.27 33.84 34.73 34.88 34.79 34.56 34.37 34.43 34.82 35.38 35.86 36.09 36.43 36.85 37.47 37.89 38.08 38.06 37.83 37.84 38.10 38.59 39.41 40.35 41.35 42.30 43.08 43.26 43.44 43.56 43.65 43.73 43.82 43.90 43.91 43.40 43.06 42.86 42.85 42.84 42.79 42.70 42.66 42.61 42.70 42.78 42.86 42.87 42.92 43.02 43.15 43.37
32.34 32.21 32.02 31.88 32.00 32.14 32.32 32.55 32.80 32.66 32.39 32.16 32.02 32.16 32.57 33.02 33.31 33.75 34.30 34.99 34.78 34.26 33.76 33.68 33.72 34.01 34.38 34.84 35.20 35.53 36.12 36.69 37.07 37.45 37.54 37.41 37.32 37.36 37.71 38.40 39.35 40.54 41.55 42.07 42.33 42.67 42.96 43.26 43.51 43.64 43.77 43.69 43.01 42.49 42.25 42.45 42.57 42.61 42.52 42.43 42.39 42.39 42.43 42.43 42.47 42.56 42.70 42.97 43.37
32.09 31.99 31.85 31.77 31.84 31.93 32.06 32.29 32.58 32.57 32.39 32.20 32.06 32.27 32.58 32.78 33.07 33.36 33.75 34.30 34.45 34.19 33.71 33.56 33.62 33.79 34.02 34.35 34.76 35.07 35.61 36.27 36.54 36.63 36.77 36.91 36.91 36.99 37.20 37.60 38.66 39.77 40.77 41.20 41.50 41.95 42.33 42.74 43.21 43.47 43.60 43.43 42.51 41.95 41.62 41.79 42.08 42.16 42.12 42.04 42.04 42.08 42.17 42.16 42.21 42.43 42.61 42.83 43.28
31.57 31.42 31.20 31.24 31.37 31.42 31.55 31.72 32.06 32.13 32.06 31.63 31.60 31.72 31.92 32.08 32.43 32.68 33.09 34.01 34.35 34.18 33.79 33.50 33.57 33.71 33.81 34.02 34.48 34.87 35.16 35.47 35.65 35.93 36.16 36.40 36.42 36.47 36.56 36.94 37.70 38.93 40.12 40.61 40.94 41.32 41.74 42.24 42.74 43.09 43.12 42.80 41.93 41.37 41.09 41.17 41.46 41.64 41.72 41.73 41.64 41.69 41.77 41.86 42.03 42.21 42.47 42.74 43.06
30.98 30.64 30.45 30.71 30.81 30.97 31.10 31.36 31.59 31.56 31.33 30.96 30.64 30.78 31.13 31.57 31.70 32.21 32.87 33.86 33.77 33.48 33.14 33.04 33.15 33.14 33.09 33.13 33.47 33.97 34.36 34.34 34.73 35.15 35.59 35.95 35.82 35.75 35.82 36.27 36.72 38.01 39.42 40.21 40.43 40.85 41.27 41.86 42.29 42.58 42.48 41.96 41.30 40.79 40.64 40.72 41.01 41.19 41.33 41.33 41.20 41.25 41.33 41.50 41.71 41.94 42.21 42.52 42.79
29.93 29.75 29.65 30.01 30.10 30.30 30.57 30.95 30.95 30.88 30.64 30.03 29.67 29.78 30.20 30.83 31.02 31.56 32.28 33.19 32.82 32.64 32.65 32.58 32.62 32.58 32.50 32.56 32.74 33.04 33.41 33.62 33.97 34.34 34.88 35.40 35.29 35.14 35.27 35.63 35.88 36.93 38.30 39.59 39.99 40.46 40.88 41.48 41.79 41.92 41.64 40.96 40.50 40.17 40.15 40.18 40.40 40.53 40.71 40.75 40.89 40.99 41.08 41.28 41.40 41.62 41.80 42.16 42.39
28.81 28.99 28.97 29.14 28.99 29.24 29.64 30.10 30.13 30.10 29.86 29.27 29.13 29.28 29.67 30.12 30.44 31.07 31.87 32.73 32.17 32.18 32.31 32.41 32.25 32.21 32.40 32.58 32.67 32.81 33.07 33.18 33.53 33.86 34.09 34.43 34.57 34.70 34.88 35.03 35.22 36.03 37.27 38.84 39.51 40.10 40.61 41.26 41.45 41.46 41.01 40.15 39.80 39.71 39.60 39.64 39.72 39.86 39.99 40.12 40.40 40.59 40.81 41.10 41.18 41.26 41.40 41.72 41.85
28.41 28.56 28.56 28.36 28.11 28.21 28.52 28.79 28.90 28.97 28.95 28.80 28.79 29.04 29.37 29.73 30.11 30.67 31.39 32.20 31.75 31.76 31.97 32.05 32.09 32.35 32.62 32.92 32.63 32.61 32.70 32.67 33.08 33.49 33.64 33.64 34.18 34.63 34.86 34.68 34.87 35.52 36.58 38.15 38.98 39.71 40.34 40.92 41.11 41.12 40.76 39.91 39.51 39.36 39.37 39.31 39.13 39.09 39.14 39.33 39.60 39.96 40.32 40.67 40.74 40.81 40.95 41.23 41.51
28.09 28.22 28.15 27.88 27.76 27.79 27.88 27.92 28.09 28.25 28.46 28.46 28.43 28.61 28.93 29.50 29.93 30.46 30.95 31.49 31.57 31.59 31.71 31.88 31.99 32.21 32.51 32.83 32.28 31.98 31.90 31.92 32.24 32.67 33.03 33.20 33.78 34.49 34.95 34.63 34.55 34.97 35.95 37.33 38.46 39.31 40.00 40.61 40.80 40.81 40.46 39.44 39.17 39.10 39.10 38.94 38.63 38.41 38.30 38.49 38.84 39.15 39.60 40.05 40.34 40.46 40.55 40.69 41.19
27.82 27.94 27.80 27.67 27.61 27.58 27.54 27.46 27.70 27.99 28.26 28.30 28.23 28.58 29.18 29.68 29.70 29.68 29.85 30.26 30.65 31.05 31.41 31.63 31.53 31.53 31.67 32.16 31.79 31.46 31.28 31.30 31.47 31.82 32.28 32.60 33.03 33.79 34.37 34.23 34.13 34.37 34.97 36.24 37.76 38.88 39.74 40.19 40.41 40.54 40.27 39.28 38.79 38.67 38.67 38.58 38.12 37.73 37.61 37.85 38.21 38.55 38.86 39.40 39.76 39.98 40.06 40.10 40.59
MSLP
1011.12 1011.04 1011.00 1010.92 1010.88 1010.84 1010.84 1010.72 1010.68 1010.56 1010.48 1010.32 1010.20 1010.00 1009.84 1009.72 1009.52 1009.32 1009.16 1009.04 1008.92 1008.76 1008.60 1008.48 1008.40 1008.28 1008.16 1008.08 1008.04 1008.00 1007.96 1007.92 1007.84 1007.80 1007.76 1007.72 1007.72 1007.68 1007.64 1007.64 1007.64 1007.64 1007.64 1007.64 1007.72 1007.72 1007.76 1007.76 1007.84 1007.84 1007.80 1007.76 1007.72 1007.72 1007.64 1007.56 1007.56 1007.56 1007.44 1007.40 1007.28 1007.20 1007.12 1007.04 1006.92 1006.84 1006.76 1006.72 1006.68
1011.32 1011.20 1011.12 1011.04 1010.96 1010.84 1010.80 1010.72 1010.60 1010.52 1010.40 1010.28 1010.12 1010.00 1009.84 1009.68 1009.56 1009.40 1009.24 1009.12 1008.96 1008.80 1008.64 1008.52 1008.32 1008.24 1008.12 1008.00 1007.92 1007.84 1007.84 1007.76 1007.72 1007.64 1007.56 1007.56 1007.52 1007.44 1007.44 1007.40 1007.40 1007.40 1007.40 1007.40 1007.44 1007.48 1007.48 1007.52 1007.56 1007.56 1007.56 1007.48 1007.48 1007.44 1007.40 1007.32 1007.40 1007.36 1007.28 1007.16 1007.12 1007.04 1007.00 1006.84 1006.72 1006.56 1006.52 1006.44 1006.40
1011.72 1011.52 1011.36 1011.20 1011.12 1011.00 1010.92 1010.76 1010.64 1010.52 1010.36 1010.20 1010.04 1009.88 1009.76 1009.64 1009.52 1009.40 1009.24 1009.08 1008.96 1008.84 1008.72 1008.56 1008.44 1008.28 1008.12 1008.00 1007.88 1007.80 1007.72 1007.60 1007.56 1007.48 1007.40 1007.36 1007.28 1007.24 1007.20 1007.20 1007.20 1007.16 1007.16 1007.16 1007.20 1007.20 1007.20 1007.24 1007.28 1007.28 1007.28 1007.24 1007.20 1007.12 1007.04 1007.00 1007.04 1007.04 1007.00 1006.88 1006.84 1006.84 1006.80 1006.64 1006.44 1006.36 1006.32 1006.20 1006.12
1012.24 1012.00 1011.80 1011.56 1011.40 1011.28 1011.12 1010.92 1010.76 1010.60 1010.44 1010.24 1010.04 1009.88 1009.72 1009.60 1009.44 1009.32 1009.20 1009.08 1008.96 1008.84 1008.72 1008.60 1008.48 1008.32 1008.20 1008.12 1007.96 1007.84 1007.68 1007.56 1007.44 1007.36 1007.28 1007.16 1007.08 1007.00 1007.00 1006.96 1006.96 1006.92 1006.92 1006.92 1006.96 1006.96 1006.96 1006.96 1007.00 1007.00 1007.00 1007.00 1006.88 1006.84 1006.76 1006.72 1006.72 1006.72 1006.64 1006.56 1006.56 1006.56 1006.52 1006.40 1006.28 1006.16 1006.08 1005.92 1005.80
1012.64 1012.48 1012.28 1012.08 1011.92 1011.68 1011.40 1011.24 1011.00 1010.80 1010.56 1010.40 1010.20 1010.00 1009.84 1009.72 1009.52 1009.40 1009.24 1009.12 1008.96 1008.84 1008.68 1008.56 1008.44 1008.32 1008.20 1008.08 1007.96 1007.80 1007.64 1007.52 1007.40 1007.28 1007.20 1007.08 1006.96 1006.84 1006.80 1006.76 1006.72 1006.72 1006.68 1006.68 1006.72 1006.72 1006.72 1006.72 1006.72 1006.72 1006.68 1006.64 1006.60 1006.52 1006.44 1006.40 1006.40 1006.36 1006.28 1006.24 1006.24 1006.20 1006.16 1006.08 1006.00 1005.96 1005.84 1005.72 1005.56
1013.00 1012.80 1012.64 1012.44 1012.20 1012.00 1011.80 1011.56 1011.36 1011.12 1010.84 1010.56 1010.44 1010.32 1010.16 1010.00 1009.84 1009.64 1009.48 1009.28 1009.08 1008.84 1008.68 1008.56 1008.40 1008.28 1008.12 1008.00 1007.84 1007.72 1007.56 1007.44 1007.32 1007.20 1007.12 1007.00 1006.84 1006.76 1006.68 1006.60 1006.52 1006.48 1006.44 1006.44 1006.44 1006.44 1006.48 1006.56 1006.52 1006.44 1006.36 1006.32 1006.28 1006.16 1006.12 1006.12 1006.12 1006.04 1006.00 1006.00 1005.92 1005.84 1005.84 1005.80 1005.72 1005.68 1005.60 1005.52 1005.40
1013.32 1013.08 1012.84 1012.64 1012.44 1012.24 1012.00 1011.80 1011.56 1011.40 1011.16 1010.96 1010.84 1010.72 1010.56 1010.40 1010.24 1010.08 1009.84 1009.60 1009.36 1009.12 1008.96 1008.76 1008.56 1008.40 1008.20 1008.04 1007.84 1007.68 1007.48 1007.36 1007.20 1007.08 1007.00 1006.88 1006.72 1006.64 1006.56 1006.48 1006.40 1006.32 1006.28 1006.20 1006.16 1006.16 1006.16 1006.28 1006.28 1006.16 1006.08 1006.00 1005.92 1005.84 1005.76 1005.80 1005.76 1005.72 1005.72 1005.64 1005.56 1005.56 1005.56 1005.44 1005.40 1005.36 1005.36 1005.24 1005.12
1013.56 1013.32 1013.08 1012.84 1012.64 1012.44 1012.20 1012.00 1011.80 1011.56 1011.40 1011.28 1011.12 1011.00 1010.88 1010.72 1010.52 1010.36 1010.12 1009.92 1009.72 1009.52 1009.32 1009.12 1008.88 1008.68 1008.44 1008.20 1008.00 1007.72 1007.52 1007.32 1007.12 1006.96 1006.80 1006.68 1006.56 1006.44 1006.40 1006.28 1006.20 1006.12 1006.00 1005.96 1005.96 1005.96 1005.96 1006.00 1005.96 1005.88 1005.80 1005.72 1005.60 1005.48 1005.40 1005.44 1005.40 1005.40 1005.32 1005.28 1005.20 1005.16 1005.16 1005.12 1005.12 1005.08 1005.00 1004.92 1004.84
1013.72 1013.48 1013.24 1013.00 1012.80 1012.56 1012.40 1012.20 1012.00 1011.76 1011.60 1011.52 1011.32 1011.16 1011.04 1010.84 1010.72 1010.52 1010.32 1010.16 1010.00 1009.84 1009.60 1009.36 1009.08 1008.84 1008.56 1008.32 1008.08 1007.84 1007.56 1007.36 1007.12 1006.84 1006.68 1006.52 1006.44 1006.32 1006.20 1006.12 1006.04 1005.96 1005.84 1005.76 1005.72 1005.72 1005.68 1005.68 1005.60 1005.56 1005.48 1005.40 1005.28 1005.16 1005.12 1005.12 1005.12 1005.04 1005.00 1004.92 1004.88 1004.84 1004.80 1004.76 1004.76 1004.76 1004.72 1004.64 1004.56
1014.00 1013.72 1013.48 1013.20 1013.00 1012.80 1012.56 1012.36 1012.12 1011.96 1011.80 1011.68 1011.48 1011.32 1011.12 1010.96 1010.80 1010.64 1010.52 1010.40 1010.16 1009.96 1009.72 1009.48 1009.20 1008.88 1008.60 1008.28 1008.00 1007.76 1007.52 1007.28 1007.04 1006.84 1006.60 1006.40 1006.24 1006.12 1006.00 1005.96 1005.84 1005.76 1005.68 1005.56 1005.48 1005.44 1005.40 1005.40 1005.28 1005.20 1005.12 1005.08 1005.00 1004.96 1004.88 1004.84 1004.84 1004.80 1004.68 1004.56 1004.48 1004.44 1004.40 1004.36 1004.40 1004.40 1004.40 1004.32 1004.24
1014.32 1014.08 1013.80 1013.52 1013.28 1013.00 1012.76 1012.52 1012.28 1012.12 1011.96 1011.80 1011.60 1011.40 1011.24 1011.08 1010.88 1010.76 1010.64 1010.44 1010.24 1010.00 1009.76 1009.52 1009.28 1009.00 1008.68 1008.40 1008.04 1007.72 1007.44 1007.16 1006.92 1006.72 1006.52 1006.28 1006.12 1005.96 1005.80 1005.68 1005.60 1005.56 1005.44 1005.36 1005.28 1005.24 1005.20 1005.12 1005.00 1004.88 1004.80 1004.72 1004.68 1004.64 1004.60 1004.56 1004.56 1004.48 1004.40 1004.28 1004.16 1004.08 1004.00 1003.92 1003.92 1004.00 1004.00 1003.96 1003.88
1014.64 1014.36 1014.08 1013.84 1013.56 1013.24 1013.00 1012.72 1012.48 1012.28 1012.12 1011.92 1011.72 1011.56 1011.36 1011.20 1011.08 1010.92 1010.72 1010.48 1010.28 1010.04 1009.80 1009.60 1009.32 1009.08 1008.80 1008.56 1008.24 1007.92 1007.56 1007.12 1006.84 1006.56 1006.32 1006.12 1005.96 1005.80 1005.64 1005.44 1005.36 1005.28 1005.20 1005.12 1005.08 1005.00 1004.92 1004.80 1004.72 1004.60 1004.52 1004.44 1004.40 1004.32 1004.28 1004.20 1004.20 1004.12 1004.04 1004.00 1003.96 1003.84 1003.68 1003.48 1003.44 1003.48 1003.52 1003.52 1003.52
1014.92 1014.64 1014.32 1014.04 1013.72 1013.40 1013.16 1012.92 1012.68 1012.48 1012.28 1012.12 1011.92 1011.72 1011.56 1011.36 1011.24 1011.00 1010.80 1010.56 1010.40 1010.16 1009.96 1009.72 1009.44 1009.20 1009.00 1008.76 1008.52 1008.24 1007.84 1007.40 1007.00 1006.56 1006.28 1006.04 1005.84 1005.68 1005.48 1005.32 1005.12 1005.04 1005.00 1004.88 1004.84 1004.80 1004.68 1004.52 1004.40 1004.28 1004.24 1004.12 1004.04 1004.00 1003.92 1003.88 1003.84 1003.76 1003.72 1003.68 1003.68 1003.60 1003.40 1003.16 1003.00 1003.00 1003.00 1003.04 1003.04
1015.12 1014.84 1014.56 1014.28 1013.96 1013.64 1013.32 1013.12 1012.88 1012.68 1012.48 1012.28 1012.12 1011.92 1011.72 1011.52 1011.32 1011.12 1010.92 1010.72 1010.52 1010.28 1010.08 1009.84 1009.56 1009.36 1009.12 1008.96 1008.72 1008.44 1008.12 1007.72 1007.28 1006.92 1006.56 1006.28 1006.00 1005.76 1005.56 1005.32 1005.12 1005.00 1004.92 1004.76 1004.72 1004.60 1004.44 1004.28 1004.08 1003.96 1003.84 1003.72 1003.68 1003.60 1003.60 1003.60 1003.56 1003.44 1003.32 1003.28 1003.28 1003.28 1003.24 1003.00 1002.72 1002.56 1002.52 1002.52 1002.48
1015.28 1015.04 1014.80 1014.48 1014.20 1013.88 1013.56 1013.36 1013.12 1012.92 1012.72 1012.48 1012.28 1012.12 1011.88 1011.68 1011.48 1011.28 1011.04 1010.84 1010.60 1010.44 1010.20 1010.00 1009.72 1009.48 1009.28 1009.00 1008.80 1008.52 1008.24 1007.92 1007.60 1007.28 1007.00 1006.72 1006.48 1006.24 1005.96 1005.64 1005.36 1005.12 1004.92 1004.72 1004.52 1004.40 1004.24 1004.04 1003.88 1003.68 1003.48 1003.32 1003.20 1003.12 1003.12 1003.12 1003.12 1003.00 1002.92 1002.84 1002.76 1002.80 1002.84 1002.76 1002.52 1002.28 1002.08 1002.00 1002.00
1015.40 1015.16 1014.96 1014.72 1014.44 1014.12 1013.88 1013.68 1013.40 1013.20 1013.00 1012.76 1012.52 1012.28 1012.08 1011.84 1011.60 1011.36 1011.12 1010.92 1010.72 1010.52 1010.32 1010.08 1009.84 1009.56 1009.32 1009.08 1008.84 1008.56 1008.28 1008.00 1007.76 1007.52 1007.28 1007.12 1006.96 1006.76 1006.52 1006.20 1005.88 1005.56 1005.20 1004.88 1004.60 1004.36 1004.12 1003.92 1003.72 1003.52 1003.28 1003.04 1002.84 1002.72 1002.60 1002.52 1002.44 1002.44 1002.36 1002.28 1002.20 1002.20 1002.28 1002.28 1002.16 1001.96 1001.72 1001.56 1001.52
1015.56 1015.36 1015.12 1014.92 1014.64 1014.40 1014.16 1014.00 1013.76 1013.56 1013.28 1013.04 1012.76 1012.56 1012.28 1012.00 1011.76 1011.52 1011.28 1011.08 1010.84 1010.60 1010.36 1010.12 1009.96 1009.72 1009.40 1009.16 1008.92 1008.68 1008.40 1008.12 1007.84 1007.64 1007.48 1007.32 1007.20 1007.04 1006.84 1006.60 1006.36 1006.00 1005.68 1005.32 1005.00 1004.72 1004.44 1004.16 1003.84 1003.56 1003.28 1003.00 1002.72 1002.48 1002.28 1002.08 1001.96 1001.84 1001.72 1001.60 1001.56 1001.56 1001.60 1001.72 1001.72 1001.56 1001.28 1001.12 1001.00
1015.76 1015.56 1015.32 1015.12 1014.88 1014.68 1014.44 1014.28 1014.04 1013.84 1013.60 1013.36 1013.04 1012.80 1012.56 1012.28 1012.00 1011.72 1011.44 1011.20 1011.00 1010.72 1010.44 1010.20 1010.00 1009.76 1009.52 1009.24 1009.00 1008.76 1008.52 1008.24 1008.00 1007.80 1007.60 1007.44 1007.32 1007.20 1007.00 1006.80 1006.56 1006.28 1006.00 1005.72 1005.40 1005.12 1004.84 1004.56 1004.24 1003.88 1003.56 1003.20 1002.84 1002.44 1002.12 1001.84 1001.64 1001.40 1001.24 1001.04 1000.96 1000.88 1000.92 1001.00 1001.08 1001.00 1000.80 1000.56 1000.48
1015.96 1015.72 1015.56 1015.32 1015.12 1014.92 1014.72 1014.52 1014.28 1014.08 1013.84 1013.60 1013.36 1013.08 1012.84 1012.56 1012.28 1011.96 1011.64 1011.36 1011.12 1010.88 1010.64 1010.32 1010.04 1009.80 1009.56 1009.32 1009.08 1008.84 1008.64 1008.44 1008.24 1008.00 1007.84 1007.68 1007.48 1007.32 1007.12 1006.92 1006.68 1006.44 1006.16 1005.92 1005.60 1005.28 1005.00 1004.72 1004.44 1004.20 1003.88 1003.56 1003.16 1002.72 1002.28 1001.80 1001.32 1000.96 1000.72 1000.56 1000.40 1000.28 1000.24 1000.32 1000.44 1000.36 1000.16 999.96 999.88
1016.12 1015.96 1015.76 1015.60 1015.40 1015.12 1014.92 1014.72 1014.52 1014.32 1014.12 1013.84 1013.60 1013.32 1013.04 1012.76 1012.48 1012.20 1011.92 1011.60 1011.36 1011.12 1010.84 1010.52 1010.24 1009.96 1009.72 1009.44 1009.28 1009.04 1008.84 1008.72 1008.52 1008.28 1008.08 1007.88 1007.72 1007.48 1007.28 1007.04 1006.80 1006.56 1006.28 1006.00 1005.72 1005.40 1005.04 1004.72 1004.44 1004.20 1003.92 1003.64 1003.28 1002.92 1002.52 1002.00 1001.40 1000.84 1000.44 1000.12 999.84 999.64 999.56 999.60 999.72 999.72 999.56 999.36 999.28
1016.32 1016.16 1016.00 1015.80 1015.56 1015.36 1015.12 1014.92 1014.72 1014.52 1014.28 1014.04 1013.76 1013.48 1013.20 1012.96 1012.72 1012.44 1012.16 1011.88 1011.60 1011.32 1011.04 1010.72 1010.44 1010.16 1009.88 1009.68 1009.44 1009.28 1009.08 1008.88 1008.72 1008.56 1008.32 1008.08 1007.84 1007.68 1007.44 1007.16 1006.88 1006.60 1006.32 1006.04 1005.72 1005.40 1005.04 1004.72 1004.44 1004.12 1003.84 1003.52 1003.16 1002.80 1002.44 1002.12 1001.64 1001.12 1000.52 999.96 999.52 999.16 998.96 998.88 999.00 999.00 998.96 998.84 998.72
1016.52 1016.32 1016.16 1015.96 1015.72 1015.52 1015.28 1015.04 1014.84 1014.60 1014.40 1014.12 1013.88 1013.60 1013.32 1013.08 1012.84 1012.60 1012.36 1012.08 1011.80 1011.52 1011.24 1010.92 1010.64 1010.32 1010.08 1009.84 1009.60 1009.40 1009.20 1009.00 1008.84 1008.68 1008.44 1008.24 1008.00 1007.76 1007.56 1007.24 1006.96 1006.60 1006.32 1006.04 1005.72 1005.40 1005.00 1004.64 1004.28 1004.00 1003.72 1003.36 1003.00 1002.64 1002.28 1001.96 1001.56 1001.12 1000.60 1000.00 999.40 998.92 998.56 998.40 998.28 998.28 998.28 998.20 998.16
1016.72 1016.48 1016.28 1016.08 1015.84 1015.60 1015.36 1015.12 1014.88 1014.68 1014.44 1014.20 1013.96 1013.72 1013.44 1013.24 1013.00 1012.72 1012.44 1012.16 1011.92 1011.68 1011.40 1011.12 1010.76 1010.48 1010.20 1009.96 1009.72 1009.48 1009.28 1009.04 1008.84 1008.68 1008.44 1008.28 1008.08 1007.84 1007.56 1007.32 1007.00 1006.68 1006.36 1006.04 1005.76 1005.40 1005.08 1004.68 1004.28 1003.92 1003.60 1003.28 1002.92 1002.56 1002.24 1001.88 1001.48 1001.04 1000.56 1000.00 999.40 998.84 998.36 998.00 997.80 997.64 997.56 997.56 997.56
1016.84 1016.64 1016.44 1016.20 1015.96 1015.72 1015.44 1015.20 1014.96 1014.72 1014.48 1014.28 1014.04 1013.80 1013.56 1013.28 1013.04 1012.80 1012.56 1012.28 1012.04 1011.80 1011.56 1011.28 1010.92 1010.60 1010.28 1010.00 1009.80 1009.56 1009.32 1009.08 1008.84 1008.64 1008.44 1008.28 1008.08 1007.84 1007.60 1007.40 1007.08 1006.76 1006.44 1006.12 1005.84 1005.56 1005.24 1004.84 1004.44 1004.00 1003.60 1003.28 1002.96 1002.64 1002.28 1001.92 1001.52 1001.04 1000.56 1000.00 999.40 998.80 998.24 997.76 997.40 997.20 997.04 996.92 996.92
1016.96 1016.76 1016.52 1016.28 1016.04 1015.80 1015.56 1015.28 1015.04 1014.80 1014.60 1014.40 1014.16 1013.92 1013.64 1013.36 1013.12 1012.84 1012.60 1012.36 1012.12 1011.88 1011.64 1011.36 1011.04 1010.72 1010.40 1010.08 1009.84 1009.64 1009.44 1009.20 1008.96 1008.68 1008.44 1008.20 1008.00 1007.84 1007.60 1007.36 1007.12 1006.80 1006.52 1006.24 1005.88 1005.56 1005.28 1005.00 1004.60 1004.20 1003.80 1003.40 1003.00 1002.68 1002.36 1002.00 1001.60 1001.20 1000.72 1000.20 999.56 998.84 998.12 997.44 997.00 996.80 996.60 996.44 996.32
1017.00 1016.80 1016.56 1016.36 1016.12 1015.88 1015.64 1015.40 1015.20 1014.96 1014.72 1014.52 1014.28 1014.00 1013.72 1013.44 1013.20 1012.96 1012.68 1012.44 1012.12 1011.92 1011.68 1011.40 1011.12 1010.80 1010.48 1010.16 1009.96 1009.72 1009.52 1009.28 1009.08 1008.80 1008.52 1008.24 1007.96 1007.72 1007.56 1007.28 1007.08 1006.80 1006.52 1006.24 1005.92 1005.56 1005.28 1004.92 1004.64 1004.32 1003.96 1003.56 1003.12 1002.76 1002.44 1002.04 1001.68 1001.32 1000.96 1000.44 999.84 999.12 998.32 997.44 996.72 996.32 996.08 995.92 995.76
1017.00 1016.80 1016.60 1016.40 1016.12 1015.92 1015.72 1015.52 1015.28 1015.04 1014.80 1014.56 1014.32 1014.12 1013.84 1013.56 1013.32 1013.00 1012.72 1012.48 1012.24 1012.00 1011.72 1011.44 1011.16 1010.92 1010.60 1010.28 1010.08 1009.84 1009.64 1009.40 1009.16 1008.92 1008.64 1008.32 1008.04 1007.80 1007.56 1007.28 1007.00 1006.80 1006.52 1006.16 1005.84 1005.48 1005.16 1004.84 1004.56 1004.28 1003.96 1003.64 1003.24 1002.84 1002.48 1002.08 1001.68 1001.32 1001.00 1000.56 1000.08 999.52 998.84 998.12 997.28 996.56 995.96 995.56 995.28
1017.08 1016.84 1016.60 1016.36 1016.12 1015.92 1015.72 1015.52 1015.28 1015.04 1014.84 1014.64 1014.44 1014.24 1014.00 1013.72 1013.40 1013.12 1012.84 1012.56 1012.28 1012.00 1011.76 1011.52 1011.28 1011.04 1010.76 1010.48 1010.24 1010.00 1009.80 1009.56 1009.28 1009.04 1008.76 1008.48 1008.20 1007.96 1007.64 1007.36 1007.08 1006.80 1006.48 1006.12 1005.76 1005.40 1005.12 1004.80 1004.44 1004.16 1003.88 1003.60 1003.24 1002.84 1002.44 1002.12 1001.72 1001.32 1000.96 1000.56 1000.08 999.60 999.12 998.56 997.96 997.28 996.56 995.84 995.24
1017.16 1016.92 1016.68 1016.44 1016.28 1016.04 1015.84 1015.64 1015.40 1015.24 1015.04 1014.84 1014.60 1014.36 1014.08 1013.80 1013.48 1013.20 1012.92 1012.64 1012.36 1012.12 1011.84 1011.64 1011.40 1011.12 1010.88 1010.64 1010.40 1010.12 1009.92 1009.72 1009.40 1009.12 1008.84 1008.60 1008.36 1008.08 1007.80 1007.48 1007.12 1006.84 1006.48 1006.16 1005.80 1005.44 1005.12 1004.80 1004.44 1004.12 1003.80 1003.48 1003.16 1002.84 1002.44 1002.04 1001.68 1001.28 1000.88 1000.44 1000.00 999.56 999.00 998.52 998.00 997.52 997.04 996.48 995.72
1017.28 1017.04 1016.84 1016.68 1016.48 1016.28 1016.12 1015.92 1015.72 1015.56 1015.32 1015.08 1014.84 1014.56 1014.28 1013.96 1013.60 1013.32 1013.04 1012.76 1012.48 1012.24 1012.04 1011.84 1011.56 1011.28 1011.00 1010.76 1010.52 1010.24 1010.00 1009.76 1009.52 1009.24 1009.00 1008.72 1008.44 1008.16 1007.88 1007.56 1007.20 1006.88 1006.56 1006.20 1005.84 1005.52 1005.16 1004.84 1004.52 1004.12 1003.72 1003.32 1003.00 1002.68 1002.32 1001.96 1001.56 1001.12 1000.72 1000.28 999.84 999.40 998.88 998.40 997.84 997.40 996.92 996.44 995.92
1017.40 1017.24 1017.04 1016.88 1016.72 1016.52 1016.28 1016.08 1015.84 1015.64 1015.44 1015.24 1015.00 1014.72 1014.44 1014.08 1013.76 1013.48 1013.16 1012.88 1012.60 1012.32 1012.12 1011.88 1011.64 1011.40 1011.12 1010.84 1010.56 1010.32 1010.08 1009.84 1009.56 1009.36 1009.12 1008.84 1008.56 1008.28 1007.96 1007.60 1007.28 1006.96 1006.56 1006.24 1005.88 1005.56 1005.24 1004.88 1004.52 1004.12 1003.72 1003.28 1002.92 1002.56 1002.16 1001.80 1001.40 1000.96 1000.56 1000.12 999.68 999.24 998.80 998.28 997.76 997.28 996.84 996.40 995.96
1017.52 1017.32 1017.12 1016.96 1016.72 1016.52 1016.28 1016.04 1015.84 1015.60 1015.40 1015.20 1014.96 1014.72 1014.40 1014.12 1013.84 1013.52 1013.20 1012.92 1012.60 1012.32 1012.08 1011.84 1011.60 1011.32 1011.04 1010.76 1010.56 1010.32 1010.08 1009.84 1009.60 1009.40 1009.20 1008.96 1008.68 1008.36 1008.00 1007.68 1007.32 1006.96 1006.60 1006.28 1005.92 1005.56 1005.24 1004.88 1004.52 1004.12 1003.68 1003.28 1002.88 1002.48 1002.08 1001.60 1001.16 1000.72 1000.32 999.92 999.52 999.08 998.68 998.28 997.80 997.32 996.84 996.44 996.00
1017.52 1017.32 1017.12 1016.92 1016.68 1016.44 1016.20 1016.00 1015.76 1015.56 1015.36 1015.12 1014.92 1014.64 1014.32 1014.04 1013.72 1013.40 1013.12 1012.84 1012.56 1012.32 1012.12 1011.88 1011.68 1011.40 1011.12 1010.84 1010.56 1010.28 1010.08 1009.84 1009.64 1009.40 1009.20 1008.96 1008.72 1008.40 1008.04 1007.72 1007.36 1007.00 1006.64 1006.28 1005.96 1005.56 1005.24 1004.84 1004.44 1004.00 1003.56 1003.16 1002.84 1002.44 1001.96 1001.44 1001.00 1000.56 1000.08 999.68 999.28 998.92 998.56 998.20 997.84 997.40 996.92 996.44 996.04
1017.52 1017.28 1017.08 1016.88 1016.68 1016.44 1016.16 1015.96 1015.72 1015.48 1015.28 1015.08 1014.84 1014.60 1014.28 1014.00 1013.64 1013.32 1013.04 1012.76 1012.52 1012.32 1012.12 1012.00 1011.80 1011.56 1011.32 1011.08 1010.80 1010.48 1010.16 1009.88 1009.68 1009.44 1009.20 1008.96 1008.68 1008.36 1008.04 1007.72 1007.32 1007.00 1006.68 1006.32 1005.96 1005.56 1005.16 1004.72 1004.32 1003.88 1003.44 1003.04 1002.72 1002.32 1001.84 1001.32 1000.84 1000.36 999.88 999.44 999.04 998.72 998.36 998.04 997.72 997.36 996.92 996.44 996.00
1017.52 1017.28 1017.08 1016.84 1016.64 1016.44 1016.16 1015.92 1015.68 1015.44 1015.28 1015.04 1014.80 1014.56 1014.28 1014.00 1013.68 1013.40 1013.08 1012.76 1012.52 1012.32 1012.12 1012.00 1011.80 1011.60 1011.40 1011.16 1010.92 1010.64 1010.28 1010.00 1009.72 1009.44 1009.20 1008.92 1008.64 1008.28 1007.96 1007.60 1007.28 1006.96 1006.64 1006.28 1005.88 1005.52 1005.08 1004.64 1004.24 1003.76 1003.36 1002.96 1002.60 1002.24 1001.76 1001.24 1000.72 1000.20 999.72 999.28 998.88 998.52 998.20 997.88 997.56 997.20 996.80 996.36 995.88
1017.56 1017.32 1017.12 1016.88 1016.72 1016.44 1016.20 1015.92 1015.72 1015.44 1015.28 1015.04 1014.80 1014.52 1014.24 1013.96 1013.72 1013.48 1013.16 1012.84 1012.56 1012.32 1012.12 1011.96 1011.72 1011.56 1011.36 1011.12 1010.92 1010.68 1010.44 1010.12 1009.80 1009.48 1009.20 1008.96 1008.64 1008.28 1007.92 1007.56 1007.20 1006.88 1006.56 1006.16 1005.84 1005.44 1005.00 1004.56 1004.08 1003.68 1003.28 1002.88 1002.52 1002.12 1001.68 1001.16 1000.64 1000.12 999.60 999.20 998.76 998.40 998.04 997.72 997.40 997.04 996.64 996.24 995.80
1017.68 1017.40 1017.20 1016.96 1016.72 1016.48 1016.28 1016.00 1015.72 1015.52 1015.28 1015.08 1014.84 1014.60 1014.32 1014.04 1013.80 1013.56 1013.28 1012.96 1012.64 1012.36 1012.12 1011.96 1011.72 1011.56 1011.40 1011.16 1010.96 1010.72 1010.52 1010.28 1009.92 1009.56 1009.24 1008.96 1008.68 1008.28 1007.88 1007.48 1007.12 1006.84 1006.48 1006.12 1005.80 1005.40 1004.92 1004.44 1004.00 1003.56 1003.16 1002.80 1002.44 1002.00 1001.56 1001.08 1000.56 1000.08 999.56 999.12 998.68 998.28 997.92 997.60 997.28 996.92 996.56 996.12 995.72
1017.76 1017.56 1017.32 1017.04 1016.84 1016.56 1016.32 1016.08 1015.84 1015.60 1015.40 1015.16 1014.92 1014.72 1014.44 1014.20 1013.92 1013.68 1013.40 1013.12 1012.84 1012.56 1012.28 1012.00 1011.84 1011.64 1011.44 1011.28 1011.00 1010.80 1010.56 1010.36 1010.08 1009.72 1009.36 1009.00 1008.72 1008.36 1007.96 1007.52 1007.12 1006.80 1006.48 1006.12 1005.76 1005.32 1004.84 1004.40 1003.88 1003.48 1003.12 1002.80 1002.40 1001.96 1001.52 1001.00 1000.56 1000.08 999.60 999.12 998.64 998.16 997.80 997.52 997.16 996.84 996.44 996.08 995.64
1017.84 1017.64 1017.40 1017.20 1016.96 1016.72 1016.48 1016.24 1016.00 1015.76 1015.56 1015.28 1015.04 1014.80 1014.56 1014.28 1014.04 1013.84 1013.60 1013.36 1013.08 1012.80 1012.52 1012.24 1012.00 1011.80 1011.56 1011.32 1011.08 1010.80 1010.56 1010.40 1010.12 1009.84 1009.52 1009.12 1008.76 1008.44 1008.04 1007.60 1007.16 1006.80 1006.48 1006.12 1005.72 1005.28 1004.84 1004.32 1003.84 1003.44 1003.12 1002.80 1002.44 1002.00 1001.52 1001.00 1000.52 1000.00 999.56 999.12 998.64 998.12 997.68 997.36 997.00 996.68 996.32 995.96 995.60
1017.92 1017.72 1017.52 1017.28 1017.08 1016.84 1016.60 1016.40 1016.16 1015.96 1015.72 1015.44 1015.20 1014.92 1014.68 1014.44 1014.24 1014.00 1013.76 1013.52 1013.28 1013.00 1012.72 1012.44 1012.16 1011.96 1011.72 1011.44 1011.16 1010.88 1010.60 1010.36 1010.12 1009.84 1009.56 1009.20 1008.84 1008.44 1008.08 1007.64 1007.24 1006.84 1006.48 1006.12 1005.72 1005.28 1004.80 1004.28 1003.88 1003.48 1003.12 1002.84 1002.44 1002.00 1001.56 1001.04 1000.48 1000.00 999.56 999.12 998.68 998.12 997.56 997.12 996.80 996.48 996.16 995.84 995.52
1018.00 1017.76 1017.56 1017.40 1017.16 1016.96 1016.72 1016.48 1016.28 1016.04 1015.84 1015.56 1015.36 1015.12 1014.84 1014.60 1014.36 1014.12 1013.84 1013.64 1013.40 1013.12 1012.84 1012.56 1012.28 1012.08 1011.84 1011.56 1011.28 1011.00 1010.68 1010.36 1010.08 1009.80 1009.52 1009.16 1008.84 1008.44 1008.08 1007.68 1007.24 1006.84 1006.48 1006.12 1005.72 1005.28 1004.76 1004.28 1003.88 1003.48 1003.12 1002.84 1002.48 1002.04 1001.56 1001.04 1000.52 1000.00 999.56 999.12 998.68 998.20 997.60 997.04 996.56 996.28 995.96 995.68 995.36
Wind_Speed
4 4 3 3 3 4 4 4 5 5 6 6 6 6 6 5 6 5 5 5 5 5 5 5 5 5 5 6 8 8 9 9 10 10 10 11 11 11 11 11 11 12 12 12 12 12 12 12 11 10 9 8 9 9 9 9 10 11 11 11 11 11 11 13 13 12 13 13 11
8 6 5 5 5 4 4 5 5 6 6 5 5 5 5 5 5 5 5 5 5 5 5 5 5 5 6 8 8 9 9 9 10 11 11 12 12 12 11 11 11 12 12 13 13 12 11 12 11 10 9 8 9 10 10 9 10 11 13 14 12 11 11 12 13 13 13 13 12
13 10 8 7 6 6 5 5 5 6 7 6 6 5 5 5 5 5 6 6 6 6 6 6 6 6 7 8 8 8 9 9 10 11 11 11 12 12 12 12 12 12 12 12 12 11 11 12 11 10 9 9 10 10 11 11 11 12 13 15 12 10 10 11 12 12 11 11 12
16 15 13 11 12 10 8 7 7 8 8 7 7 6 6 5 5 5 5 6 6 6 6 6 7 7 7 8 8 9 9 9 10 11 11 11 12 12 13 12 13 13 13 12 12 12 12 12 10 10 10 11 12 11 11 10 11 11 11 12 10 10 10 10 10 11 11 11 12
15 14 14 14 15 14 12 10 11 10 9 7 7 7 6 6 6 6 6 6 6 7 7 8 8 8 8 9 10 11 11 11 11 11 11 11 12 12 12 13 13 13 13 13 13 13 13 13 10 10 10 11 10 10 10 11 12 11 10 9 9 10 10 10 10 10 10 10 10
13 13 13 13 14 14 12 12 13 12 10 8 9 9 9 8 8 8 8 8 9 9 10 10 9 9 9 10 11 12 12 12 11 11 11 11 11 11 12 13 13 12 12 12 13 13 13 12 10 10 10 10 11 12 12 13 13 12 11 11 11 10 9 10 9 9 10 11 11
14 14 13 13 13 13 12 12 12 12 11 10 13 14 13 12 12 12 12 11 11 11 11 10 10 11 11 11 11 11 11 11 11 11 12 11 12 12 12 12 12 13 13 13 13 13 12 11 10 10 10 11 11 12 13 13 13 13 13 13 12 11 10 11 9 9 11 14 14
14 14 14 14 14 14 13 13 11 10 10 10 12 13 14 14 14 14 14 13 12 11 11 10 12 13 14 13 13 12 12 12 12 12 12 12 12 13 13 12 13 13 13 13 13 12 12 10 10 10 10 10 11 12 14 15 15 15 15 15 13 12 11 10 9 10 12 16 17
14 15 15 14 15 15 14 13 12 11 11 11 12 12 13 13 13 13 12 11 11 11 11 11 13 15 15 15 15 14 14 13 13 12 12 12 12 13 13 12 13 13 13 12 13 13 13 11 10 10 10 10 10 12 13 15 16 17 16 16 15 14 14 13 12 13 15 17 19
15 16 15 15 15 15 14 14 12 12 12 13 13 13 13 13 13 12 11 10 10 11 12 12 13 15 15 15 15 14 14 13 13 13 13 13 13 13 13 12 13 13 13 12 12 13 13 11 10 11 11 11 12 13 14 14 16 17 16 14 15 17 18 17 17 17 17 18 19
16 16 15 14 15 15 14 14 12 12 13 13 14 14 14 13 13 13 12 11 11 12 13 13 14 14 15 14 14 14 14 13 13 14 14 15 14 14 14 13 13 14 14 13 13 12 11 11 12 13 13 13 13 13 14 14 15 16 17 15 17 19 20 20 19 19 18 19 20
16 16 15 15 15 15 14 14 12 11 12 14 14 14 13 13 13 13 13 13 13 13 13 13 13 14 13 13 14 15 15 14 14 14 15 16 16 16 15 15 15 15 15 15 14 12 12 12 13 14 15 15 13 12 13 15 15 16 17 17 18 19 20 21 21 19 18 18 20
16 16 16 16 16 15 14 14 11 11 12 14 14 13 12 12 13 13 14 14 14 13 12 13 13 13 12 13 14 15 16 16 16 15 15 16 17 17 17 17 17 16 16 16 15 14 14 14 15 16 17 17 14 13 14 15 16 17 17 18 19 20 21 22 22 21 20 21 21
16 16 16 17 17 15 14 14 12 12 13 14 13 13 12 12 13 13 13 13 13 13 12 13 12 11 12 13 14 16 17 18 18 17 17 16 17 18 18 18 18 18 18 17 18 18 19 18 18 18 19 19 18 17 17 16 17 17 18 19 20 22 24 24 23 22 21 22 23
16 16 17 17 17 15 14 14 12 12 13 14 14 13 12 11 12 12 12 13 13 13 12 12 12 12 12 14 14 15 16 17 18 18 18 18 17 17 17 17 17 17 17 18 18 20 21 22 22 21 21 21 21 21 21 20 20 20 20 20 21 23 24 26 24 23 22 22 22
16 17 17 17 17 16 15 14 12 12 13 14 14 14 13 12 12 12 13 13 12 12 12 13 13 12 12 13 14 14 15 15 16 16 17 17 18 18 18 17 17 16 16 15 16 17 19 22 23 24 24 24 24 24 24 24 23 23 23 23 23 24 24 26 26 25 23 22 21
16 17 17 17 17 17 17 15 13 13 14 15 15 15 14 13 12 13 13 14 13 13 14 15 13 13 13 13 14 14 14 14 14 14 14 15 16 16 16 16 16 16 16 16 15 15 16 17 19 21 23 26 26 26 26 26 26 25 25 25 25 25 25 26 27 27 25 23 23
16 17 17 17 18 18 18 17 16 16 16 17 16 15 15 14 14 14 14 14 15 15 16 16 14 14 14 15 14 13 13 14 15 15 15 14 14 14 14 15 14 14 15 15 15 16 17 17 17 18 19 20 22 24 26 28 28 28 27 27 26 26 26 26 27 27 26 24 24
16 16 17 17 17 17 17 17 17 16 16 16 16 16 16 16 17 16 15 16 16 17 17 16 15 15 15 16 15 14 14 14 16 16 16 15 15 14 14 14 14 13 13 13 13 14 15 16 17 18 18 18 19 20 21 24 26 28 28 29 28 27 27 27 28 27 26 25 24
16 16 16 16 16 16 16 16 16 16 16 15 16 17 17 17 17 17 17 17 17 17 17 16 15 15 15 16 16 15 14 13 15 16 16 15 15 15 15 14 14 13 13 12 12 13 14 15 16 16 17 18 19 20 20 21 22 23 25 27 28 28 28 28 28 28 27 26 25
16 16 15 15 15 15 15 15 15 15 15 15 16 17 17 17 17 17 17 17 17 17 17 16 15 15 14 15 15 14 13 11 13 14 14 14 15 15 15 14 14 13 12 12 12 13 15 15 16 16 16 17 18 19 20 20 21 21 22 22 25 27 29 29 28 28 28 27 26
16 15 15 14 14 15 14 14 14 14 15 15 16 16 16 17 17 17 17 17 17 17 17 16 15 15 14 14 13 13 12 11 11 12 12 13 14 14 15 14 14 14 13 12 13 14 16 16 17 17 17 17 18 19 20 20 20 21 22 22 23 25 28 30 29 29 29 28 28
15 15 14 13 14 15 15 14 14 14 15 15 16 16 16 16 16 16 16 16 16 17 17 16 15 14 14 13 13 13 12 12 12 12 12 12 13 14 15 14 14 14 13 12 13 14 16 16 17 17 17 16 18 19 21 21 21 21 21 23 23 23 25 28 28 29 29 29 28
16 15 14 13 14 15 15 15 15 15 15 16 16 16 16 16 16 16 16 15 16 16 16 15 14 14 14 13 13 13 13 14 13 13 12 12 13 13 14 13 13 13 12 11 13 16 17 16 15 15 15 15 16 17 18 20 20 21 21 22 23 22 22 23 26 28 29 29 28
15 15 15 14 15 15 15 15 16 16 16 16 16 16 16 16 15 15 15 15 15 15 16 16 15 14 14 13 13 14 14 14 14 14 14 14 13 13 13 12 11 11 10 10 17 22 24 21 18 16 14 14 14 15 16 18 19 20 21 22 22 22 21 21 23 26 27 28 28
15 15 15 15 15 16 16 16 16 16 16 16 16 16 16 16 15 15 15 15 15 15 15 15 15 14 14 13 13 14 14 14 14 15 15 15 15 15 13 11 11 10 10 14 21 25 27 27 25 22 18 14 14 14 14 15 17 18 20 21 22 22 21 20 20 22 25 26 28
15 15 16 16 16 16 17 16 16 17 17 17 17 17 17 16 15 15 16 15 15 15 14 13 14 14 14 13 14 15 15 15 15 15 15 15 16 16 15 13 11 10 12 18 24 27 28 28 28 27 23 17 14 13 13 13 15 16 17 18 18 19 20 21 20 20 22 25 28
16 16 17 17 18 18 18 17 18 18 18 18 18 18 18 17 17 17 16 16 15 14 13 12 13 12 11 12 13 15 15 16 15 15 15 15 15 15 15 13 12 13 16 22 26 27 28 29 29 29 27 23 16 13 13 13 13 13 14 14 14 15 16 18 18 19 19 20 23
16 16 17 18 18 18 18 18 18 18 18 18 18 18 18 18 17 17 17 16 16 15 14 12 11 11 11 12 13 14 15 15 14 14 15 15 16 15 15 14 13 15 18 23 25 27 28 29 29 30 30 28 19 13 11 11 11 11 12 12 12 13 14 14 14 16 17 19 19
15 16 16 16 17 16 16 16 16 16 16 15 17 17 18 17 17 17 16 16 15 14 13 12 12 13 13 14 14 13 13 13 13 14 15 16 17 17 16 16 14 14 17 22 24 26 27 28 29 30 30 31 23 16 11 11 11 11 11 11 12 14 15 16 16 16 16 17 19
14 14 14 14 14 14 14 14 13 13 13 13 14 15 16 15 15 15 15 15 14 13 13 14 14 15 15 15 14 14 14 14 13 14 15 16 17 18 18 17 16 15 17 22 24 26 27 27 28 29 30 31 24 18 13 12 12 11 11 11 13 15 16 16 16 17 18 18 18
13 13 13 13 13 13 13 13 12 12 12 12 13 14 14 14 14 13 13 13 13 13 14 14 15 16 16 16 16 16 15 15 15 15 15 15 16 17 18 17 16 16 18 23 26 27 27 27 27 28 29 30 24 19 16 15 14 12 12 13 15 16 16 15 16 17 18 19 18
12 12 13 13 13 13 13 13 13 12 12 13 13 14 14 14 14 13 13 13 12 12 13 14 15 16 16 17 17 17 17 16 16 16 16 16 17 17 17 17 15 16 19 25 27 28 28 28 28 28 28 29 22 18 17 16 14 12 12 13 14 15 16 17 17 18 18 19 17
13 13 13 13 14 14 14 14 13 13 13 13 14 14 14 14 15 14 14 13 12 11 11 12 13 14 14 15 17 17 17 16 16 16 17 17 17 17 17 15 13 16 21 26 28 28 29 28 28 28 28 27 20 16 16 17 15 14 13 14 14 15 16 17 17 18 18 18 17
13 14 14 14 14 14 14 14 14 14 14 14 14 14 15 15 15 15 15 15 14 13 11 11 11 12 13 14 15 16 17 17 17 17 17 17 18 18 18 17 15 18 23 27 28 29 29 29 29 29 28 23 17 14 15 17 16 15 15 16 15 16 16 17 17 17 17 18 17
14 14 14 15 15 15 15 15 14 14 14 15 15 15 15 15 14 14 14 15 15 14 13 13 13 13 13 14 14 15 16 17 18 18 18 18 19 19 19 19 17 19 23 26 28 29 30 30 30 29 26 20 15 13 14 14 14 15 16 16 16 16 16 16 16 16 17 17 17
14 14 15 15 15 15 15 15 15 15 15 15 15 15 15 15 14 14 14 15 15 15 15 14 14 14 15 15 15 15 16 17 18 19 19 19 19 20 20 20 18 19 21 25 28 29 30 30 30 29 25 18 15 14 14 13 13 14 15 16 16 16 16 14 14 15 16 17 18
14 14 15 15 15 15 15 15 15 15 15 15 15 14 14 14 13 13 14 15 15 15 16 16 15 15 15 16 15 15 16 16 18 19 19 19 19 20 21 21 19 18 19 24 28 30 30 31 31 30 26 18 16 14 13 12 13 13 14 14 15 15 15 13 12 13 14 16 19
13 13 14 14 14 15 15 15 15 15 15 15 15 15 14 14 13 13 14 14 14 15 15 16 16 16 16 17 16 16 16 16 17 18 19 19 19 20 21 21 19 18 20 24 28 30 31 31 31 31 28 20 16 14 13 12 13 14 14 14 14 15 15 13 11 11 12 16 19
12 12 13 13 14 14 14 14 14 14 14 14 15 15 14 14 13 13 13 13 14 14 14 15 16 16 17 17 16 16 16 16 17 17 18 19 19 21 21 20 19 19 20 23 27 29 30 31 31 31 29 20 17 14 12 12 13 14 15 14 14 14 14 13 12 11 11 14 17
12 12 13 13 13 13 14 14 14 14 14 14 15 14 14 13 13 12 12 12 13 13 13 13 15 16 17 17 15 16 16 17 17 18 18 18 19 19 19 18 19 19 20 22 26 29 30 30 31 31 30 23 18 15 12 12 13 15 16 16 15 15 14 14 12 11 11 12 13
Wind_Direction
309 298 287 277 273 272 272 273 274 274 274 273 274 275 276 278 278 278 276 273 268 263 259 255 251 249 246 242 238 236 235 235 234 234 233 233 234 233 232 232 231 230 231 232 233 234 235 236 237 238 240 241 243 245 246 246 248 250 252 253 253 253 253 252 249 242 234 227 226
332 320 306 294 286 280 276 274 274 275 275 275 275 276 278 280 281 283 283 282 279 277 274 270 264 258 253 249 244 241 238 238 236 236 236 236 236 235 234 235 234 233 232 232 232 233 234 234 235 237 239 240 241 242 243 241 242 246 249 250 252 253 254 254 252 248 242 234 227
355 348 338 327 317 306 294 285 281 280 280 280 281 282 283 283 283 283 283 283 284 284 283 282 277 272 266 262 256 251 246 243 240 239 238 238 238 237 236 237 237 236 235 234 233 233 234 233 233 235 236 238 239 240 241 240 239 242 245 246 248 250 251 252 252 251 247 241 232
6 3 359 355 349 340 327 314 305 298 294 290 289 289 289 289 287 285 283 283 283 283 282 282 282 281 278 275 270 265 259 253 248 246 244 243 241 240 239 238 238 238 238 236 235 235 234 233 234 235 236 237 238 238 239 239 238 239 241 243 244 245 246 249 251 251 250 248 240
6 7 7 6 4 0 354 345 338 330 320 308 305 303 302 301 299 296 293 291 287 283 281 279 278 278 277 276 274 271 268 263 258 255 252 250 248 246 244 242 241 240 240 239 237 237 236 234 236 237 237 237 237 237 238 237 238 239 241 242 241 242 243 245 246 247 248 249 244
0 1 3 4 4 3 2 358 356 353 348 343 341 337 332 326 323 320 316 310 303 298 294 289 286 282 278 276 273 271 269 267 264 261 259 257 255 253 251 249 246 244 243 241 240 239 237 235 238 240 240 239 240 239 238 237 238 239 240 242 241 241 242 242 243 244 245 246 243
358 358 359 1 0 360 359 358 359 360 1 2 1 358 355 350 346 341 336 329 322 318 313 309 304 299 294 288 282 276 272 268 266 263 261 260 258 256 255 253 251 249 246 245 243 241 239 236 239 241 242 241 242 241 239 237 238 239 239 240 240 241 241 242 242 243 243 243 241
358 359 359 360 360 359 357 356 356 359 2 4 2 359 357 355 352 350 347 343 338 333 328 323 317 313 308 302 295 288 281 275 270 266 263 261 260 259 258 256 254 252 250 247 245 243 242 239 239 240 242 242 244 243 241 239 238 239 239 239 240 240 240 241 241 242 243 243 242
359 359 358 359 0 359 357 355 356 358 0 360 357 354 353 352 351 350 349 345 340 336 332 328 324 320 315 309 302 295 288 282 276 271 266 263 261 260 260 259 257 255 253 250 248 246 244 242 241 240 240 240 242 244 243 242 241 240 239 239 240 239 239 240 240 241 242 244 243
359 357 357 358 358 358 356 355 356 359 360 359 356 354 352 351 350 349 346 340 335 332 331 329 327 324 320 315 308 300 293 285 281 276 272 267 263 260 259 258 257 257 256 253 251 249 247 246 244 242 241 240 241 243 244 244 244 243 242 241 239 239 239 238 238 239 241 243 243
358 356 355 355 355 355 356 356 357 359 360 358 356 355 354 352 351 348 344 338 336 334 332 329 328 326 325 322 317 309 300 290 283 277 274 270 266 262 259 257 257 256 256 255 253 251 250 248 247 245 243 241 240 240 242 242 244 244 245 245 242 240 239 237 236 237 239 241 242
357 355 354 353 353 355 356 357 357 358 358 357 356 355 354 352 350 347 343 342 340 337 335 332 331 330 330 330 328 323 315 305 292 282 275 271 267 264 260 258 256 256 255 255 254 252 251 250 249 248 247 245 242 240 239 239 241 243 245 247 246 244 241 237 234 234 235 237 240
356 355 354 353 354 355 356 357 356 356 357 356 355 354 352 350 348 347 345 344 343 341 338 335 334 334 336 337 337 335 332 326 316 304 292 282 276 271 267 264 261 259 258 258 256 254 252 250 249 249 249 248 246 244 241 240 239 240 242 244 247 247 246 241 235 233 232 234 237
357 356 355 354 354 355 356 357 356 355 355 353 353 352 350 349 348 348 347 346 345 343 340 338 337 338 339 341 341 341 341 340 337 331 321 310 300 291 284 279 275 271 268 266 263 260 257 254 250 248 248 248 248 247 245 243 241 241 241 241 244 248 250 247 240 234 231 231 234
359 358 356 355 356 356 357 357 355 354 353 352 351 350 349 348 348 347 347 347 345 344 342 341 339 338 339 341 342 343 344 346 347 347 345 341 334 326 317 309 301 293 286 279 272 267 263 260 256 253 250 248 248 247 246 244 243 242 241 240 241 245 248 250 244 238 232 230 231
359 358 357 356 357 357 357 357 354 353 351 350 349 349 348 348 347 346 347 347 346 345 344 343 341 339 339 341 342 343 344 346 348 350 350 350 348 346 343 339 334 328 320 310 298 287 278 271 266 262 257 254 251 249 247 245 244 242 241 240 239 241 244 248 247 242 236 231 230
359 358 357 357 357 357 357 356 354 352 350 349 348 348 348 347 346 345 346 346 345 344 344 343 342 341 341 342 343 344 345 345 346 346 346 344 344 343 343 342 343 343 342 340 336 327 316 302 291 280 272 265 260 256 253 250 248 245 243 240 239 239 240 243 246 244 239 233 231
358 357 357 357 357 356 355 354 353 351 350 349 348 348 347 347 346 345 345 345 345 344 343 342 342 343 343 343 344 346 346 346 345 344 341 338 336 335 334 334 336 339 343 346 348 348 345 339 330 318 304 289 279 271 264 260 256 251 247 243 240 239 239 240 243 242 240 235 232
357 357 356 356 355 354 353 352 352 351 349 348 347 347 347 347 346 345 344 345 345 343 341 340 341 342 343 344 344 346 347 346 344 342 339 336 334 332 330 329 329 331 334 337 341 344 346 345 343 339 333 324 313 301 289 277 268 260 253 247 243 240 238 238 240 240 239 236 234
357 356 355 354 352 351 350 351 350 349 348 347 346 346 346 346 346 345 345 345 344 342 339 338 339 340 341 341 342 343 345 344 342 340 338 335 333 331 329 327 325 325 326 328 331 334 337 338 338 337 335 332 328 323 315 306 292 278 265 255 248 242 239 237 238 238 239 238 236
357 355 353 351 350 349 348 349 348 348 347 347 346 346 346 346 346 345 344 343 342 341 339 337 337 337 337 338 338 339 340 339 339 337 335 334 333 331 329 326 324 323 323 324 327 331 333 334 334 332 330 328 326 324 321 317 310 300 288 273 259 250 242 237 236 237 238 239 238
355 353 351 350 348 348 348 348 348 348 347 347 346 345 345 345 345 343 342 341 342 342 340 337 335 335 335 335 334 334 334 333 335 335 335 334 334 333 331 328 325 324 324 326 329 332 334 334 333 332 330 327 325 322 319 316 311 307 301 292 278 263 251 242 238 237 237 238 239
353 352 351 349 348 348 348 348 348 348 348 348 346 345 344 344 343 342 341 341 342 342 340 337 334 333 333 333 333 332 332 331 332 333 334 335 335 334 333 331 328 327 327 327 331 333 334 333 332 331 330 328 326 323 320 317 312 307 302 297 288 276 262 250 242 238 237 237 238
352 351 351 349 349 349 349 349 350 350 350 348 346 345 344 343 342 341 341 341 342 341 340 337 334 332 332 332 334 334 334 332 332 332 332 334 334 334 334 332 330 328 327 327 331 334 335 333 332 330 329 327 325 322 319 316 313 308 304 299 293 284 271 258 248 243 239 237 237
350 350 350 350 350 350 350 351 351 351 350 348 346 344 343 343 342 341 341 341 341 340 338 336 334 333 332 333 335 336 336 334 332 331 332 333 333 334 334 333 331 329 327 325 330 333 334 334 333 331 329 326 322 319 316 313 311 309 306 304 300 293 282 267 253 245 241 238 236
348 349 349 349 349 350 350 351 350 350 349 347 346 345 344 343 341 341 341 341 341 340 338 336 335 335 334 334 336 337 338 336 334 332 332 332 333 334 334 334 332 330 328 328 332 333 335 335 335 334 331 326 322 317 313 309 308 307 307 307 308 306 302 290 269 252 242 238 235
347 347 348 347 348 349 349 349 348 348 348 348 347 345 343 342 341 341 341 342 341 340 338 338 338 336 335 333 335 337 338 336 334 332 331 331 331 332 332 332 332 330 329 330 332 334 335 336 335 335 334 330 324 318 312 307 305 304 304 305 308 313 317 318 307 288 267 251 243
346 346 346 347 347 347 347 346 346 346 347 346 345 343 341 340 340 340 340 341 341 341 341 341 339 337 335 334 335 336 336 335 333 331 331 331 330 330 329 329 328 328 328 330 332 334 335 335 335 335 334 333 327 319 311 306 304 302 301 300 302 308 314 320 323 321 311 290 269
344 345 345 346 345 345 344 344 343 343 343 342 341 340 338 338 338 338 339 339 340 341 342 341 339 337 335 334 334 334 334 333 332 331 331 332 331 329 327 325 324 323 325 328 330 333 334 335 334 334 334 335 330 323 314 308 304 302 300 299 301 304 307 310 314 320 323 323 313
343 343 343 342 341 340 339 338 337 336 337 337 336 335 334 333 334 335 336 337 337 338 339 337 336 335 334 334 334 334 333 332 331 331 332 332 331 330 327 324 321 319 320 324 328 331 332 333 333 333 333 334 331 325 315 308 304 301 300 300 304 307 309 310 311 313 316 320 322
339 339 338 336 334 333 331 329 328 329 330 331 331 330 328 328 329 330 331 331 331 333 334 335 335 334 334 335 335 334 333 331 332 332 332 332 330 329 326 323 321 318 318 323 326 329 330 331 331 331 332 334 331 327 319 311 306 303 302 303 307 310 312 313 314 314 315 316 318
334 334 333 331 330 328 327 326 325 326 327 329 328 326 325 324 325 326 326 327 328 330 333 336 335 335 335 337 337 336 335 334 333 333 332 330 328 327 325 323 321 320 320 324 327 328 329 329 329 330 331 334 331 326 319 313 308 304 303 304 308 311 314 315 314 314 314 314 314
333 334 333 332 331 330 329 329 329 329 330 331 329 328 327 326 327 327 327 328 330 332 334 336 336 336 336 336 336 336 336 335 334 333 331 329 327 325 324 323 321 321 323 326 328 328 328 327 328 329 331 333 330 326 320 315 310 305 304 305 309 312 313 314 313 313 312 312 311
336 337 337 336 335 334 333 333 333 334 334 334 332 331 331 331 331 332 332 333 333 334 335 335 335 334 334 334 334 334 334 334 334 333 331 329 327 325 324 323 321 323 325 327 328 328 328 327 328 329 331 333 330 325 320 317 312 308 306 306 309 311 313 314 313 312 311 311 310
339 340 340 340 339 337 336 335 336 337 337 336 335 334 334 335 335 334 334 334 334 334 335 334 333 333 332 333 332 332 332 332 332 332 331 330 329 326 324 323 320 323 325 327 328 328 328 328 328 330 332 333 329 325 321 318 314 311 309 308 310 312 314 314 313 312 311 311 311
341 341 341 341 340 339 338 338 338 339 339 338 337 336 336 336 336 335 334 334 334 335 335 335 335 334 334 334 333 332 332 331 331 331 331 331 329 327 325 323 321 322 325 327 328 328 328 328 330 332 334 333 329 325 322 319 316 314 312 311 312 314 315 314 313 312 312 311 311
340 341 341 341 340 340 339 339 340 340 340 339 338 337 337 336 335 335 335 336 336 336 336 336 336 336 336 335 333 332 331 330 330 330 330 330 330 328 326 324 322 323 324 326 327 327 328 328 330 333 335 333 330 326 322 320 318 316 316 314 313 314 315 315 314 312 311 311 311
338 339 340 340 340 340 340 340 341 341 340 339 338 337 337 336 336 336 336 337 336 336 335 335 336 336 336 335 332 331 330 330 329 329 329 329 329 327 326 324 323 323 324 326 327 327 327 328 331 335 337 335 331 327 323 319 318 318 318 317 315 315 315 315 314 312 311 311 310
336 338 339 339 339 339 339 340 340 340 339 338 337 337 337 337 336 336 336 336 335 335 334 334 335 335 334 334 332 330 330 329 329 328 328 327 327 326 325 324 323 323 324 326 326 326 327 328 331 335 337 336 332 328 323 319 318 318 318 319 317 316 316 315 314 312 311 311 311
334 336 338 339 339 339 338 338 339 339 338 338 337 337 337 336 335 334 334 334 335 334 333 332 333 333 333 333 331 330 329 329 329 328 327 326 325 325 325 324 323 323 324 325 326 326 326 328 331 335 337 336 333 328 323 319 318 319 320 321 320 318 317 315 314 312 312 312 313
334 336 338 339 339 338 338 337 337 337 337 337 337 336 335 334 333 333 334 334 335 334 333 332 332 332 333 333 331 330 329 328 329 328 326 325 323 324 324 323 323 323 323 325 325 326 327 329 332 335 337 337 334 330 324 320 319 320 321 322 321 319 317 315 314 313 313 314 313